Weather in Aleksikovsky

Russia / Volgograd Oblast     50°56′30″N   42°19′26″E
temp.,
°C
wind,
m/s
gust,
m/s
humid.,
%
clouds,
%
prec.,
mm/h
press.,
hPa
HPBL,
m
26 july, mon
mon2600:00+18e225597 0.0 102218
03:00+17ese225513 0.0 102316
06:00+17e22575 0.0 102359
09:00+23e22395 0.0 1023614
12:00+27ene22306 0.0 10232540
15:00+28nne122623 0.0 10212865
18:00+27n453387 0.0 1021746
21:00+20ne46491 0.0 102283
27 july, tue
tue2700:00+18e33530 0.0 102226
03:00+17se22560 0.0 102314
06:00+18s11540 0.0 102340
09:00+25wsw11370 0.0 1023550
12:00+28nnw232917 0.0 10212599
15:00+29nnw342876 0.0 10202864
18:00+28n443241 0.0 10191593
21:00+21ene345037 0.0 102051
28 july, wed
wed2800:00+22ese11480 0.0 102012
03:00+19w005511 0.0 102011
06:00+20e11576 0.0 102031
09:00+26sse22405 0.0 1019697
12:00+29sw233275 0.0 10182657
15:00+30w333184 0.0 10172433
18:00+30sw13292 0.0 10152362
21:00+25sse354097 0.0 101596
29 july, thu
thu2900:00+21s4748100 0.0 1015114
03:00+21s41246100 0.0 1013243
06:00+22wsw384697 0.0 1013227
09:00+25wsw3656100 0.1 1012427
12:00+31wsw9123634 0.1 10112463
15:00+31w7938100 0.1 10102294
18:00+28sw4750100 0.2 1010370
21:00+24wsw34625 0.2 101063
30 july, fri
fri3000:00+22w336182 0.0 101027
03:00+21wsw22643 0.0 101012
06:00+22sw23605 0.0 101083
09:00+29sw3342100 0.0 1010697
12:00+34wsw563155 0.0 10082888
15:00+34wsw6731100 0.0 10072693
18:00+27nnw345393 0.9 100869
21:00+24s357284 5.3 100867